Location: Newark
(54.5667°N, 9.6500°E)
Time: 06:00:56
(UTC+00:00)

SO-50 - Visible Passes

Search period start: 06 December 2019 00:00
Search period end: 16 December 2019 00:00
Orbit: 593 x 693 km, 64.6° (Epoch: 05 December)

Date Brightness Start Highest point End Pass type
(mag) Time Alt. Az. Time Alt. Az. Time Alt. Az.
06 Dec ? 16:33:28 10° WNW 16:37:30 25° N 16:40:03 17° NE visible
06 Dec ? 18:14:47 10° NW 18:17:41 27° NNW 18:17:41 27° NNW visible
07 Dec ? 16:59:01 10° NW 17:03:06 26° N 17:04:28 23° NNE visible
07 Dec ? 18:39:56 10° NW 18:42:05 24° NNW 18:42:05 24° NNW visible
08 Dec ? 15:42:50 10° WNW 15:46:56 26° N 15:50:58 10° NE visible
08 Dec ? 17:24:23 10° NW 17:28:40 30° NNE 17:28:54 30° NNE visible
08 Dec ? 19:05:02 10° NW 19:06:31 20° NW 19:06:31 20° NW visible
09 Dec ? 16:08:31 10° NW 16:12:32 25° N 16:15:44 14° NE visible
09 Dec ? 17:49:35 10° NW 17:53:22 36° N 17:53:22 36° N visible
09 Dec ? 19:30:09 10° NW 19:31:00 15° NW 19:31:00 15° NW visible
10 Dec ? 16:33:58 10° NW 16:38:08 27° NNE 16:40:14 20° NE visible
10 Dec ? 18:14:41 10° NW 18:17:52 38° NNW 18:17:52 38° NNW visible
10 Dec ? 19:55:27 10° WNW 19:55:31 10° WNW 19:55:31 10° WNW visible
11 Dec ? 16:59:14 10° NW 17:03:39 34° NNE 17:04:48 30° NE visible
11 Dec ? 18:39:47 10° NW 18:42:27 33° NW 18:42:27 33° NW visible
12 Dec ? 15:43:30 10° NW 15:47:34 26° N 15:51:35 10° ENE visible
12 Dec ? 17:24:22 10° NW 17:29:02 48° NNE 17:29:27 47° NE visible
12 Dec ? 19:05:00 10° NW 19:07:05 24° WNW 19:07:05 24° WNW visible
13 Dec ? 16:08:50 10° NW 16:13:08 30° NNE 16:16:31 14° ENE visible
13 Dec ? 17:49:27 10° NW 17:54:10 77° NNE 17:54:10 77° NNE visible
13 Dec ? 19:30:29 10° WNW 19:31:49 16° WNW 19:31:49 16° WNW visible
14 Dec ? 16:34:01 10° NW 16:38:35 40° NNE 16:41:22 20° E visible
14 Dec ? 18:14:35 10° NW 18:19:01 59° WSW 18:19:01 59° WSW visible
15 Dec ? 16:59:06 10° NW 17:03:53 62° NE 17:06:22 27° ESE visible
15 Dec ? 18:39:55 10° WNW 18:44:02 32° WSW 18:44:02 32° WSW visible
